LA6LOA Weather Reports


Display with metric or nautical units.
time (UTC)temp
F
wind
direction
speed
MPH
gust
MPH
rain 1hr
in
rain 24hr
in
rain mn
in
humidity
%
barometer
mb
20260506190558 41 355 0.0 0.0 0.00 0.00 0.00 100 1009.6
20260506190058 41 355 0.0 0.0 0.00 0.00 0.00 100 1009.5
20260506185558 41 355 0.0 0.0 0.00 0.00 0.00 100 1009.5
20260506185058 41 355 0.0 6.0 0.00 0.00 0.00 100 1009.5
20260506184558 41 326 0.0 0.0 0.00 0.00 0.00 100 1009.5
20260506184058 42 326 0.0 4.0 0.00 0.00 0.00 100 1009.5
20260506183558 41 327 0.0 5.0 0.00 0.00 0.00 100 1009.4
20260506183058 41 333 5.0 6.0 0.00 0.00 0.00 100 1009.5
20260506182558 41 354 5.0 7.0 0.00 0.00 0.00 100 1009.4
20260506182058 41 343 6.0 7.0 0.00 0.00 0.00 100 1009.5
20260506181558 41 327 5.0 6.0 0.00 0.00 0.00 100 1009.5
20260506181058 41 337 5.0 7.0 0.00 0.00 0.00 100 1009.4
20260506180558 41 341 5.0 7.0 0.00 0.00 0.00 100 1009.4
20260506180058 41 351 6.0 8.0 0.00 0.00 0.00 100 1009.4
20260506175558 41 334 7.0 7.0 0.00 0.00 0.00 100 1009.4
20260506175058 41 352 6.0 8.0 0.00 0.00 0.00 100 1009.4
20260506174558 41 331 7.0 8.0 0.00 0.00 0.00 100 1009.5
20260506174058 41 338 6.0 7.0 0.00 0.00 0.00 100 1009.5
20260506173558 41 345 6.0 6.0 0.00 0.00 0.00 100 1009.4
20260506173058 41 0 6.0 8.0 0.00 0.00 0.00 100 1009.4
20260506172558 41 348 8.0 9.0 0.00 0.00 0.00 100 1009.4
20260506172058 41 344 8.0 10.0 0.00 0.00 0.00 100 1009.3
20260506171558 41 348 7.0 8.0 0.00 0.00 0.00 100 1009.3
20260506171058 41 7 5.0 9.0 0.00 0.00 0.00 100 1009.3
20260506170558 41 8 5.0 10.0 0.00 0.00 0.00 100 1009.2
20260506170058 41 348 9.0 11.0 0.00 0.00 0.00 100 1009.2
20260506165558 41 1 7.0 10.0 0.00 0.00 0.00 100 1009.2
20260506165058 40 352 7.0 11.0 0.00 0.00 0.00 100 1009.1
20260506164558 41 344 11.0 11.0 0.00 0.00 0.00 100 1009.1
20260506164058 41 5 8.0 10.0 0.00 0.00 0.00 100 1009.1
20260506163558 41 348 9.0 10.0 0.00 0.00 0.00 100 1009.0
20260506163058 41 18 9.0 11.0 0.00 0.00 0.00 100 1009.0
20260506162558 41 352 10.0 11.0 0.00 0.00 0.00 100 1008.9
20260506162058 41 5 7.0 11.0 0.00 0.00 0.00 100 1008.9
20260506161558 40 358 10.0 12.0 0.00 0.00 0.00 100 1008.9
20260506161059 40 355 11.0 12.0 0.00 0.00 0.00 100 1008.8
20260506160559 40 9 8.0 13.0 0.00 0.00 0.00 100 1008.7
20260506160059 41 352 12.0 13.0 0.00 0.00 0.00 100 1008.7
20260506155559 41 343 9.0 12.0 0.00 0.00 0.00 100 1008.6
20260506155059 41 5 8.0 12.0 0.00 0.00 0.00 100 1008.5
20260506154559 41 1 8.0 13.0 0.00 0.00 0.00 100 1008.5
20260506154059 41 8 9.0 12.0 0.00 0.00 0.00 100 1008.5
20260506153559 41 8 8.0 12.0 0.00 0.00 0.00 100 1008.4
20260506153059 41 354 10.0 13.0 0.00 0.00 0.00 100 1008.3
20260506152559 41 343 11.0 13.0 0.00 0.00 0.00 100 1008.2
20260506152059 40 352 10.0 12.0 0.00 0.00 0.00 100 1008.2
20260506151559 41 12 9.0 12.0 0.00 0.00 0.00 100 1008.0
20260506151059 41 352 10.0 11.0 0.00 0.00 0.00 100 1007.9
20260506150559 41 343 10.0 12.0 0.00 0.00 0.00 100 1007.9
20260506150059 41 358 9.0 12.0 0.00 0.00 0.00 100 1008.0
20260506145559 41 352 10.0 13.0 0.00 0.00 0.00 100 1008.0
20260506145059 41 336 9.0 12.0 0.00 0.00 0.00 100 1008.0
20260506144559 41 4 9.0 13.0 0.00 0.00 0.00 100 1008.1
20260506144059 41 354 9.0 12.0 0.00 0.00 0.00 100 1008.1
20260506143559 41 8 8.0 11.0 0.00 0.00 0.00 100 1008.0
20260506143059 41 11 7.0 13.0 0.00 0.00 0.00 100 1008.1
20260506142559 41 343 11.0 13.0 0.00 0.00 0.00 100 1008.0
20260506142059 41 0 10.0 13.0 0.00 0.00 0.00 100 1008.1
20260506141559 41 338 9.0 11.0 0.00 0.00 0.00 100 1008.0
20260506141059 41 347 10.0 11.0 0.00 0.00 0.00 100 1008.1
20260506140559 42 14 6.0 10.0 0.00 0.00 0.00 100 1008.1
20260506140059 42 4 8.0 10.0 0.00 0.00 0.00 100 1008.1
20260506135559 41 5 8.0 11.0 0.00 0.00 0.00 100 1008.1
20260506135059 41 352 9.0 12.0 0.00 0.00 0.00 100 1008.0
20260506134559 41 345 10.0 13.0 0.00 0.00 0.00 100 1008.0
20260506134059 41 358 10.0 13.0 0.00 0.00 0.00 100 1008.0
20260506133559 41 12 10.0 13.0 0.00 0.00 0.00 100 1008.0
20260506133059 41 347 12.0 12.0 0.00 0.00 0.00 100 1007.9
20260506132559 41 347 11.0 12.0 0.00 0.00 0.00 100 1007.9
20260506132059 41 345 11.0 13.0 0.00 0.00 0.00 100 1007.9
20260506131559 41 348 10.0 12.0 0.00 0.00 0.00 100 1007.9
20260506131059 41 350 8.0 12.0 0.00 0.00 0.00 100 1007.9
20260506130559 41 354 7.0 11.0 0.00 0.00 0.00 100 1007.9
20260506130059 41 5 8.0 12.0 0.00 0.00 0.00 100 1007.8
20260506125559 41 348 10.0 10.0 0.00 0.00 0.00 100 1007.7
20260506125059 41 341 8.0 12.0 0.00 0.00 0.00 100 1007.7
20260506124559 42 347 11.0 11.0 0.00 0.00 0.00 100 1007.7
20260506124059 41 348 9.0 11.0 0.00 0.00 0.00 100 1007.6
20260506123559 41 1 8.0 12.0 0.00 0.00 0.00 100 1007.6
20260506123059 41 350 11.0 13.0 0.00 0.00 0.00 100 1007.6
20260506122559 41 351 12.0 12.0 0.00 0.00 0.00 100 1007.5
20260506122059 41 340 9.0 13.0 0.00 0.00 0.00 100 1007.5
20260506121559 41 15 7.0 13.0 0.00 0.00 0.00 100 1007.4
20260506121059 41 348 12.0 13.0 0.00 0.00 0.00 100 1007.4
20260506120559 41 2 7.0 13.0 0.00 0.00 0.00 100 1007.3
20260506120059 41 350 10.0 13.0 0.00 0.00 0.00 100 1007.2
20260506115559 41 348 12.0 13.0 0.00 0.00 0.00 100 1007.2
20260506115059 41 354 10.0 12.0 0.00 0.00 0.00 100 1007.2
20260506114559 41 358 7.0 11.0 0.00 0.00 0.00 100 1007.1
20260506114059 41 350 8.0 11.0 0.00 0.00 0.00 100 1007.1
20260506113559 41 347 11.0 11.0 0.00 0.00 0.00 100 1007.1
20260506113100 41 352 7.0 10.0 0.00 0.00 0.00 100 1007.0
20260506112600 41 348 6.0 9.0 0.00 0.00 0.00 100 1007.0
20260506112100 41 351 0.0 0.0 0.00 0.00 0.00 100 1006.9
20260506111600 41 351 0.0 6.0 0.00 0.00 0.00 100 1006.9
20260506111100 41 331 6.0 7.0 0.00 0.00 0.00 100 1006.9
20260506110600 41 324 0.0 7.0 0.00 0.00 0.00 100 1006.9
20260506110100 41 323 0.0 6.0 0.00 0.00 0.00 100 1006.8
20260506105600 41 340 4.0 7.0 0.00 0.00 0.00 100 1006.8
20260506105100 41 334 6.0 6.0 0.00 0.00 0.00 100 1006.8
20260506104600 41 337 6.0 7.0 0.00 0.00 0.00 100 1006.8
20260506104100 41 347 6.0 8.0 0.00 0.00 0.00 100 1006.7
20260506103600 41 337 0.0 0.0 0.00 0.00 0.00 100 1006.7
20260506103100 41 337 0.0 0.0 0.00 0.00 0.00 100 1006.7
20260506102600 40 337 0.0 0.0 0.00 0.00 0.00 100 1006.7
20260506102100 41 337 0.0 7.0 0.00 0.00 0.00 100 1006.6
20260506101600 41 324 0.0 0.0 0.00 0.00 0.00 100 1006.6
20260506101100 41 324 0.0 0.0 0.00 0.00 0.00 100 1006.5
20260506100600 41 324 0.0 0.0 0.00 0.00 0.00 100 1006.5
20260506100100 41 324 0.0 0.0 0.00 0.00 0.00 100 1006.5
20260506095600 41 324 0.0 0.0 0.00 0.00 0.00 100 1006.5
20260506095100 41 324 0.0 6.0 0.00 0.00 0.00 100 1006.4
20260506094600 41 336 1.0 7.0 0.00 0.00 0.00 100 1006.4
20260506094100 41 2 5.0 7.0 0.00 0.00 0.00 100 1006.5
20260506093600 41 22 5.0 7.0 0.00 0.00 0.00 100 1006.5
20260506093100 40 337 5.0 7.0 0.00 0.00 0.00 100 1006.5
20260506092600 40 329 7.0 9.0 0.00 0.00 0.00 100 1006.5
20260506092100 41 350 7.0 8.0 0.00 0.00 0.00 100 1006.5
20260506091600 40 329 7.0 8.0 0.00 0.00 0.00 100 1006.5
20260506091100 41 2 5.0 8.0 0.00 0.00 0.00 100 1006.4
20260506090600 40 354 6.0 7.0 0.00 0.00 0.00 100 1006.4
20260506090100 40 347 7.0 8.0 0.00 0.00 0.00 100 1006.3
20260506085600 41 337 7.0 9.0 0.00 0.00 0.00 100 1006.3
20260506085100 40 336 0.0 0.0 0.00 0.00 0.00 100 1006.2
20260506084600 40 336 0.0 6.0 0.00 0.00 0.00 100 1006.2
20260506084100 40 348 5.0 7.0 0.00 0.00 0.00 100 1006.1
20260506083600 40 350 0.0 0.0 0.00 0.00 0.00 100 1006.1
20260506083100 40 350 0.0 0.0 0.00 0.00 0.00 100 1006.0
20260506082600 40 350 0.0 6.0 0.00 0.00 0.00 100 1006.0
20260506082100 41 338 0.0 0.0 0.00 0.00 0.00 100 1005.9
20260506081600 40 338 0.0 0.0 0.00 0.00 0.00 100 1005.9
20260506081100 40 338 0.0 4.0 0.00 0.00 0.00 100 1005.9
20260506080600 40 337 1.0 5.0 0.00 0.00 0.00 100 1005.9
20260506073100 40 329 0.0 0.0 0.00 0.00 0.00 100 1005.4
20260506072600 40 329 0.0 7.0 0.00 0.00 0.00 100 1005.4
20260506072100 40 350 0.0 6.0 0.00 0.00 0.00 100 1005.3
20260506071601 40 344 5.0 5.0 0.00 0.00 0.00 100 1005.2
20260506071101 40 351 4.0 7.0 0.00 0.00 0.00 100 1005.2
20260506070601 40 337 6.0 7.0 0.00 0.00 0.00 100 1005.1
20260506062101 40 345 0.0 0.0 0.00 0.00 0.00 100 1004.4
20260506061601 40 345 0.0 7.0 0.00 0.00 0.00 100 1004.3
20260506061101 40 348 5.0 7.0 0.00 0.00 0.00 100 1004.2
20260506060601 40 344 5.0 7.0 0.00 0.00 0.00 100 1004.1
20260506051101 39 14 6.0 9.0 0.00 0.00 0.00 100 1003.8
20260506050601 40 11 5.0 8.0 0.00 0.00 0.00 100 1003.8
20260506045101 40 18 6.0 11.0 0.00 0.00 0.00 100 1003.7
20260506044601 39 4 6.0 9.0 0.00 0.00 0.00 100 1003.7
20260506044101 39 14 7.0 10.0 0.00 0.00 0.00 100 1003.6
20260506043601 39 19 8.0 10.0 0.00 0.00 0.00 100 1003.6
20260506043101 39 4 9.0 12.0 0.00 0.00 0.00 100 1003.5
20260506042601 39 341 6.0 11.0 0.00 0.00 0.00 100 1003.5
20260506042101 39 18 7.0 12.0 0.00 0.00 0.00 100 1003.5
20260506041601 40 4 10.0 12.0 0.00 0.00 0.00 100 1003.4
20260506041101 42 26 7.0 11.0 0.00 0.00 0.00 100 1003.3
20260506040601 48 5 0.0 6.0 0.00 0.00 0.00 100 1003.4
20260506040101 41 52 5.0 10.0 0.00 0.00 0.00 100 1003.3
20260506035601 43 80 4.0 8.0 0.00 0.00 0.00 100 1003.3
20260506035101 41 78 6.0 12.0 0.00 0.00 0.00 100 1003.2
20260506034602 40 29 0.0 9.0 0.00 0.00 0.00 100 1003.2
20260506034102 40 2 7.0 8.0 0.00 0.00 0.00 100 1003.2
20260506033602 40 70 5.0 6.0 0.00 0.00 0.00 100 1003.1
20260506033102 41 182 0.0 0.0 0.00 0.00 0.00 100 1003.1
20260506032602 43 182 0.0 0.0 0.00 0.00 0.00 100 1003.1
20260506032102 43 182 0.0 0.0 0.00 0.00 0.00 100 1003.1
20260506031602 41 182 0.0 0.0 0.00 0.00 0.00 100 1003.0
20260506031102 41 182 0.0 0.0 0.00 0.00 0.00 100 1003.0
20260506030602 43 182 0.0 0.0 0.00 0.00 0.00 100 1003.0
20260506025602 40 182 0.0 0.0 0.00 0.00 0.00 100 1002.8
20260506025102 41 182 0.0 1.0 0.00 0.00 0.00 100 1002.8
20260506024602 40 154 0.0 0.0 0.00 0.00 0.00 100 1002.8
20260506024102 38 154 0.0 0.0 0.00 0.00 0.00 100 1002.8
20260506023602 39 154 0.0 0.0 0.00 0.00 0.00 100 1002.8
20260506023102 39 154 0.0 4.0 0.00 0.00 0.00 100 1002.8
20260506022602 40 165 0.0 0.0 0.00 0.00 0.00 100 1002.8
20260506022102 38 165 0.0 0.0 0.00 0.00 0.00 100 1002.7
20260506021602 37 165 0.0 0.0 0.00 0.00 0.00 100 1002.7
20260506021102 37 165 0.0 0.0 0.00 0.00 0.00 100 1002.7
20260506020602 35 165 0.0 0.0 0.00 0.00 0.00 100 1002.7
20260506015602 34 165 0.0 0.0 0.00 0.00 0.00 100 1002.6
20260506015102 34 165 0.0 0.0 0.00 0.00 0.00 100 1002.5
20260506014602 34 165 0.0 0.0 0.00 0.00 0.00 100 1002.5
20260506014102 34 165 0.0 0.0 0.00 0.00 0.00 100 1002.4
20260506013602 33 165 0.0 0.0 0.00 0.00 0.00 100 1002.4
20260506013102 33 165 0.0 0.0 0.00 0.00 0.00 100 1002.3
20260506012602 34 165 0.0 0.0 0.00 0.00 0.00 100 1002.3
20260506012102 34 165 0.0 0.0 0.00 0.00 0.00 100 1002.3
20260506011602 34 165 0.0 0.0 0.00 0.00 0.00 100 1002.3
20260506011102 34 165 0.0 0.0 0.00 0.00 0.00 100 1002.3
20260506010602 34 165 0.0 0.0 0.00 0.00 0.00 100 1002.4
20260506005602 33 165 0.0 0.0 0.00 0.00 0.00 100 1002.3
20260506005102 32 165 0.0 0.0 0.00 0.00 0.00 100 1002.3
20260506004602 32 165 0.0 0.0 0.00 0.00 0.00 100 1002.3
20260506004102 32 165 0.0 0.0 0.00 0.00 0.00 100 1002.2
20260506003602 32 165 0.0 0.0 0.00 0.00 0.00 100 1002.2
20260506003102 32 165 0.0 0.0 0.00 0.00 0.00 100 1002.2
20260506002602 32 165 0.0 0.0 0.00 0.00 0.00 100 1002.2
20260506002102 32 165 0.0 0.0 0.00 0.00 0.00 100 1002.2
20260506001602 32 165 0.0 0.0 0.00 0.00 0.00 100 1002.2
20260506001102 32 165 0.0 0.0 0.00 0.00 0.00 100 1002.2
20260506000602 32 165 0.0 0.0 0.00 0.00 0.00 100 1002.2
20260505235602 32 165 0.0 0.0 0.00 0.00 0.00 100 1002.2
20260505235102 33 165 0.0 0.0 0.00 0.00 0.00 100 1002.1
20260505234602 33 165 0.0 0.0 0.00 0.00 0.00 100 1002.1
20260505234102 33 165 0.0 0.0 0.00 0.00 0.00 100 1002.1
20260505233602 33 165 0.0 0.0 0.00 0.00 0.00 100 1002.1
20260505233102 34 165 0.0 0.0 0.00 0.00 0.00 100 1002.1
20260505232602 34 165 0.0 4.0 0.00 0.00 0.00 100 1002.1
20260505232102 34 172 0.0 0.0 0.00 0.00 0.00 100 1002.1
20260505231602 35 172 0.0 0.0 0.00 0.00 0.00 100 1002.1
20260505231103 35 172 0.0 0.0 0.00 0.00 0.00 100 1002.1
20260505230603 35 172 0.0 0.0 0.00 0.00 0.00 100 1002.0
20260505225603 36 172 0.0 0.0 0.00 0.00 0.00 100 1002.1
20260505225103 36 172 0.0 0.0 0.00 0.00 0.00 100 1002.0
20260505224603 36 172 0.0 0.0 0.00 0.00 0.00 100 1002.0
20260505224103 36 172 0.0 0.0 0.00 0.00 0.00 100 1002.0
20260505223603 36 172 0.0 0.0 0.00 0.00 0.00 100 1002.0
20260505223103 36 172 0.0 0.0 0.00 0.00 0.00 100 1002.0
20260505222603 36 172 0.0 0.0 0.00 0.00 0.00 100 1002.0
20260505222103 36 172 0.0 0.0 0.00 0.00 0.00 100 1001.9
20260505221603 36 172 0.0 6.0 0.00 0.00 0.00 100 1001.8
20260505221103 36 126 0.0 6.0 0.00 0.00 0.00 100 1001.9
20260505220603 36 156 1.0 7.0 0.00 0.00 0.00 100 1001.9
20260505215603 37 153 1.0 8.0 0.00 0.00 0.00 100 1001.9
20260505215103 37 135 2.0 7.0 0.00 0.00 0.00 100 1001.9
20260505214603 37 88 1.0 6.0 0.00 0.00 0.00 100 1001.9
20260505214103 37 108 2.0 7.0 0.00 0.00 0.00 100 1001.9
20260505213603 37 125 0.0 7.0 0.00 0.00 0.00 100 1001.8
20260505213103 37 57 5.0 7.0 0.00 0.00 0.00 100 1001.8
20260505212603 37 133 5.0 7.0 0.00 0.00 0.00 100 1001.8
20260505212103 37 147 0.0 6.0 0.00 0.00 0.00 100 1001.9
20260505211603 37 133 1.0 8.0 0.00 0.00 0.00 100 1001.9
20260505211103 37 97 0.0 8.0 0.00 0.00 0.00 100 1001.9
20260505210603 38 105 8.0 10.0 0.00 0.00 0.00 100 1002.0
20260505210103 38 123 6.0 9.0 0.00 0.00 0.00 100 1002.0
20260505205603 38 123 8.0 11.0 0.00 0.00 0.00 100 1002.0
20260505205103 38 119 6.0 11.0 0.00 0.00 0.00 100 1002.0
20260505204603 38 146 5.0 9.0 0.00 0.00 0.00 100 1002.1
20260505204103 38 125 4.0 9.0 0.00 0.00 0.00 100 1002.2
20260505203603 38 119 7.0 10.0 0.00 0.00 0.00 100 1002.2
20260505203103 38 109 9.0 10.0 0.00 0.00 0.00 100 1002.2
20260505202603 38 133 4.0 10.0 0.00 0.00 0.00 100 1002.2
20260505202103 39 111 6.0 9.0 0.00 0.00 0.00 100 1002.1
20260505201603 39 108 9.0 11.0 0.00 0.00 0.00 100 1002.2
20260505201103 39 91 4.0 8.0 0.00 0.00 0.00 100 1002.1
20260505200603 39 91 7.0 7.0 0.00 0.00 0.00 100 1002.1
20260505200103 39 90 2.0 6.0 0.00 0.00 0.00 100 1002.1
20260505195603 39 151 3.0 5.0 0.00 0.00 0.00 100 1002.0
20260505195103 39 132 4.0 4.0 0.00 0.00 0.00 100 1002.1
20260505194603 40 127 0.0 6.0 0.00 0.00 0.00 100 1002.0
20260505194103 40 147 4.0 6.0 0.00 0.00 0.00 100 1002.0
20260505193603 40 160 1.0 5.0 0.00 0.00 0.00 100 1002.0
20260505193103 40 112 4.0 7.0 0.00 0.00 0.00 100 1002.0
20260505192603 40 113 4.0 8.0 0.00 0.00 0.00 100 1002.0
20260505192103 41 7 0.0 0.0 0.00 0.00 0.00 100 1002.0
20260505191603 41 7 0.0 0.0 0.00 0.00 0.00 100 1001.9
20260505191103 41 7 0.0 0.0 0.00 0.00 0.00 100 1001.9